When you browse on this site, cookies collect data to enhance your experience and personalize the content and advertising you see.
Visit our Privacy Policy to learn more. By continuing to use the site, you agree to this use of cookies and data.
  • In Germany
  • List of Countries
  • For 7 days
  • Water Temperature
  • Satellite Maps
  • Weather Map
  • Weather Widgets
  • user-avatar
    Login

    Hourly Weather Chitkan

    Today, 22 February, Friday

    Time Temperature Precipitation Wind Pressure Humidity
    00:00 -6°C° 0 mm 1 mps 722 mmHg 74%
    01:00 -7°C° 0 mm 2 mps 722 mmHg 72%
    02:00 -7°C° 0 mm 2 mps 722 mmHg 70%
    03:00 -7°C° 0 mm 2 mps 721 mmHg 69%
    04:00 -7°C° 0 mm 2 mps 721 mmHg 68%
    05:00 -7°C° 0 mm 2 mps 721 mmHg 67%
    06:00 -8°C° 0 mm 2 mps 721 mmHg 67%
    07:00 -8°C° 0 mm 1 mps 721 mmHg 67%
    08:00 -4°C° 0 mm 1 mps 721 mmHg 68%
    09:00 -2°C° 0 mm 1 mps 721 mmHg 69%
    10:00 0°C° 0 mm 1 mps 721 mmHg 70%
    11:00 -1°C° 0 mm 2 mps 720 mmHg 70%
    12:00 +1°C° 0 mm 2 mps 720 mmHg 69%
    13:00 0°C° 0 mm 3 mps 719 mmHg 69%
    14:00 -1°C° 0 mm 3 mps 719 mmHg 74%
    15:00 -2°C° 0 mm 3 mps 719 mmHg 78%
    16:00 -4°C° 0 mm 3 mps 719 mmHg 83%
    17:00 -4°C° 0.1 mm 3 mps 720 mmHg 86%
    18:00 -5°C° 0.1 mm 3 mps 720 mmHg 88%
    19:00 -6°C° 0.1 mm 3 mps 720 mmHg 91%
    20:00 -6°C° 0.1 mm 3 mps 720 mmHg 92%
    21:00 -5°C° 0.1 mm 3 mps 720 mmHg 92%
    22:00 -5°C° 0.1 mm 3 mps 720 mmHg 92%
    23:00 -7°C° 0.1 mm 4 mps 721 mmHg 92%

    Tomorrow, 23 February, Saturday

    Time Temperature Precipitation Wind Pressure Humidity
    00:00 -7°C° 0.1 mm 4 mps 721 mmHg 92%
    01:00 -7°C° 0.1 mm 4 mps 721 mmHg 91%
    02:00 -8°C° 0.1 mm 4 mps 721 mmHg 91%
    03:00 -8°C° 0.1 mm 4 mps 721 mmHg 90%
    04:00 -9°C° 0.1 mm 4 mps 721 mmHg 90%
    05:00 -10°C° 0 mm 4 mps 722 mmHg 90%
    06:00 -10°C° 0 mm 4 mps 722 mmHg 91%
    07:00 -10°C° 0 mm 3 mps 723 mmHg 91%
    08:00 -9°C° 0 mm 3 mps 723 mmHg 90%
    09:00 -10°C° 0 mm 4 mps 723 mmHg 88%
    10:00 -9°C° 0 mm 4 mps 723 mmHg 86%
    11:00 -9°C° 0.1 mm 4 mps 723 mmHg 85%
    12:00 -9°C° 0.1 mm 4 mps 723 mmHg 85%
    13:00 -10°C° 0.1 mm 5 mps 722 mmHg 84%
    14:00 -10°C° 0.1 mm 5 mps 722 mmHg 84%
    15:00 -9°C° 0.1 mm 4 mps 722 mmHg 85%
    16:00 -10°C° 0.1 mm 4 mps 722 mmHg 85%
    17:00 -11°C° 0.1 mm 4 mps 723 mmHg 87%
    18:00 -10°C° 0.1 mm 3 mps 723 mmHg 88%
    19:00 -12°C° 0.1 mm 3 mps 723 mmHg 90%
    20:00 -12°C° 0 mm 3 mps 723 mmHg 90%
    21:00 -13°C° 0 mm 3 mps 723 mmHg 90%
    22:00 -12°C° 0 mm 2 mps 723 mmHg 91%
    23:00 -10°C° 0.1 mm 2 mps 723 mmHg 91%

    Day after tomorrow, 24 February, Sunday

    Time Temperature Precipitation Wind Pressure Humidity
    00:00 -10°C° 0.1 mm 2 mps 723 mmHg 91%
    01:00 -10°C° 0.1 mm 2 mps 723 mmHg 92%
    02:00 -12°C° 0.1 mm 3 mps 723 mmHg 92%
    03:00 -12°C° 0.1 mm 3 mps 723 mmHg 92%
    04:00 -10°C° 0.1 mm 3 mps 723 mmHg 92%
    05:00 -12°C° 0.1 mm 3 mps 723 mmHg 92%
    06:00 -12°C° 0.1 mm 3 mps 723 mmHg 93%
    07:00 -12°C° 0.1 mm 3 mps 723 mmHg 93%
    08:00 -10°C° 0.1 mm 3 mps 723 mmHg 91%
    09:00 -9°C° 0.1 mm 3 mps 723 mmHg 89%
    10:00 -9°C° 0.1 mm 4 mps 723 mmHg 87%
    11:00 -8°C° 0.1 mm 4 mps 722 mmHg 86%
    12:00 -8°C° 0.1 mm 4 mps 722 mmHg 85%
    13:00 -7°C° 0.1 mm 4 mps 721 mmHg 84%
    14:00 -7°C° 0.1 mm 4 mps 721 mmHg 85%
    15:00 -7°C° 0.1 mm 4 mps 720 mmHg 86%
    16:00 -8°C° 0.1 mm 4 mps 720 mmHg 87%
    17:00 -8°C° 0.1 mm 4 mps 720 mmHg 88%
    18:00 -7°C° 0.1 mm 3 mps 720 mmHg 89%
    19:00 -7°C° 0.1 mm 3 mps 720 mmHg 90%
    20:00 -7°C° 0.1 mm 3 mps 720 mmHg 90%
    21:00 -7°C° 0.1 mm 3 mps 720 mmHg 90%
    22:00 -7°C° 0.1 mm 3 mps 720 mmHg 90%
    23:00 -7°C° 0.1 mm 3 mps 720 mmHg 90%

    25 February, Monday

    Time Temperature Precipitation Wind Pressure Humidity
    00:00 -7°C° 0.1 mm 3 mps 719 mmHg 91%
    01:00 -7°C° 0.1 mm 3 mps 719 mmHg 91%
    02:00 -7°C° 0.1 mm 3 mps 719 mmHg 92%
    03:00 -7°C° 0.1 mm 2 mps 719 mmHg 92%
    04:00 -7°C° 0.1 mm 2 mps 718 mmHg 92%
    05:00 -8°C° 0 mm 2 mps 718 mmHg 91%
    06:00 -8°C° 0 mm 2 mps 718 mmHg 90%
    07:00 -9°C° 0 mm 2 mps 718 mmHg 88%
    08:00 -4°C° 0 mm 1 mps 718 mmHg 85%
    09:00 -2°C° 0 mm 1 mps 718 mmHg 82%
    10:00 0°C° 0 mm 1 mps 718 mmHg 79%
    11:00 +1°C° 0 mm 1 mps 718 mmHg 78%
    12:00 +2°C° 0 mm 1 mps 717 mmHg 78%
    13:00 +3°C° 0 mm 1 mps 717 mmHg 77%
    14:00 +3°C° 0 mm 1 mps 717 mmHg 80%
    15:00 +2°C° 0 mm 1 mps 716 mmHg 82%
    16:00 +2°C° 0 mm 1 mps 716 mmHg 85%
    17:00 0°C° 0 mm 1 mps 716 mmHg 86%
    18:00 -2°C° 0 mm 1 mps 717 mmHg 88%
    19:00 -5°C° 0 mm 2 mps 717 mmHg 89%
    20:00 -6°C° 0 mm 2 mps 717 mmHg 89%
    21:00 -7°C° 0 mm 2 mps 717 mmHg 89%
    22:00 -8°C° 0 mm 2 mps 717 mmHg 89%
    23:00 -9°C° 0 mm 2 mps 717 mmHg 89%

    26 February, Tuesday

    Time Temperature Precipitation Wind Pressure Humidity
    00:00 -9°C° 0 mm 2 mps 717 mmHg 89%
    01:00 -9°C° 0 mm 2 mps 717 mmHg 88%
    02:00 -9°C° 0 mm 2 mps 717 mmHg 89%
    03:00 -9°C° 0 mm 2 mps 717 mmHg 89%
    04:00 -9°C° 0 mm 2 mps 718 mmHg 89%
    05:00 -10°C° 0 mm 2 mps 718 mmHg 90%
    06:00 -10°C° 0 mm 2 mps 718 mmHg 90%
    07:00 -10°C° 0 mm 2 mps 719 mmHg 91%
    08:00 -8°C° 0 mm 2 mps 719 mmHg 89%
    09:00 -7°C° 0 mm 2 mps 719 mmHg 87%
    10:00 -5°C° 0 mm 2 mps 719 mmHg 85%
    11:00 -4°C° 0 mm 2 mps 719 mmHg 81%
    12:00 -3°C° 0 mm 2 mps 719 mmHg 77%
    13:00 -3°C° 0 mm 2 mps 719 mmHg 72%
    14:00 -3°C° 0 mm 2 mps 719 mmHg 75%
    15:00 -4°C° 0 mm 2 mps 719 mmHg 77%
    16:00 -4°C° 0 mm 2 mps 719 mmHg 80%
    17:00 -6°C° 0 mm 2 mps 719 mmHg 81%
    18:00 -7°C° 0 mm 1 mps 719 mmHg 83%
    19:00 -9°C° 0 mm 1 mps 719 mmHg 84%
    20:00 -9°C° 0 mm 1 mps 719 mmHg 82%
    21:00 -10°C° 0 mm 1 mps 719 mmHg 80%
    22:00 -10°C° 0 mm 1 mps 719 mmHg 77%
    23:00 -10°C° 0 mm 1 mps 719 mmHg 77%

    27 February, Wednesday

    Time Temperature Precipitation Wind Pressure Humidity
    00:00 -10°C° 0 mm 1 mps 719 mmHg 76%
    01:00 -10°C° 0 mm 1 mps 719 mmHg 76%
    02:00 -10°C° 0 mm 1 mps 719 mmHg 76%
    03:00 -10°C° 0 mm 1 mps 719 mmHg 77%
    04:00 -10°C° 0 mm 1 mps 719 mmHg 78%
    05:00 -10°C° 0 mm 1 mps 719 mmHg 78%
    06:00 -10°C° 0 mm 1 mps 719 mmHg 79%
    07:00 -10°C° 0 mm 1 mps 719 mmHg 79%
    08:00 -8°C° 0 mm 1 mps 719 mmHg 77%
    09:00 -6°C° 0 mm 1 mps 719 mmHg 75%
    10:00 -2°C° 0 mm 1 mps 719 mmHg 73%
    11:00 -4°C° 0 mm 2 mps 719 mmHg 74%
    12:00 -3°C° 0 mm 2 mps 718 mmHg 75%
    13:00 -3°C° 0 mm 2 mps 718 mmHg 76%
    14:00 -4°C° 0 mm 3 mps 718 mmHg 79%
    15:00 -4°C° 0 mm 3 mps 717 mmHg 81%
    16:00 -5°C° 0 mm 3 mps 717 mmHg 84%
    17:00 -6°C° 0 mm 3 mps 718 mmHg 87%
    18:00 -6°C° 0 mm 2 mps 718 mmHg 89%
    19:00 -8°C° 0 mm 2 mps 718 mmHg 92%
    20:00 -8°C° 0 mm 2 mps 718 mmHg 92%
    21:00 -8°C° 0 mm 2 mps 718 mmHg 92%
    22:00 -9°C° 0 mm 2 mps 718 mmHg 92%
    23:00 -9°C° 0 mm 2 mps 718 mmHg 91%
    Show more